Moose, Wyoming, United States (83012)
Lat: 43.66N, Lon: 110.72W
Wx Zone: WYZ013
Local Info
Past Weather Observations for Tuesday, July 28, 2015

NOTE: This archive is for the closest National Weather Service station to Moose. Information may differ from the station used for current weather conditions.

Click here for Long-term Archive

Time Weather Temperature Dewpoint Humidity Pressure Winds Precip Visibility
23:55
Clear
39°F / 4°C 34°F / 1°C 81% 30.42 in
(1030 mb)
N 6.9 mph
(N 11 kph)
- 10SM
23:35
Clear
39°F / 4°C 34°F / 1°C 81% 30.42 in
(1030 mb)
Calm - 10SM
23:15
Clear
43°F / 6°C 36°F / 2°C 76% 30.42 in
(1030 mb)
Calm - 10SM
22:55
Clear
39°F / 4°C 36°F / 2°C 87% 30.42 in
(1030 mb)
Calm - 10SM
22:35
Clear
41°F / 5°C 34°F / 1°C 76% 30.42 in
(1030 mb)
N 4.6 mph
(N 7 kph)
- 10SM
22:15
Clear
46°F / 8°C 34°F / 1°C 62% 30.42 in
(1030 mb)
NE 3.5 mph
(NE 6 kph)
- 10SM
21:55
Clear
46°F / 8°C 36°F / 2°C 66% 30.39 in
(1029 mb)
NE 5.8 mph
(NE 9 kph)
- 10SM
21:35
Clear
48°F / 9°C 36°F / 2°C 62% 30.39 in
(1029 mb)
Calm - 10SM
20:55
Clear
50°F / 10°C 36°F / 2°C 58% 30.39 in
(1029 mb)
Calm - 10SM
20:35
Clear
46°F / 8°C 37°F / 3°C 71% 30.39 in
(1029 mb)
NNW 5.8 mph
(NNW 9 kph)
- 10SM
20:15
Clear
48°F / 9°C 37°F / 3°C 66% 30.36 in
(1028 mb)
NW 6.9 mph
(NW 11 kph)
- 10SM
19:55
Clear
54°F / 12°C 34°F / 1°C 47% 30.36 in
(1028 mb)
N 4.6 mph
(N 7 kph)
- 10SM
19:35
Clear
55°F / 13°C 34°F / 1°C 44% 30.36 in
(1028 mb)
N 4.6 mph
(N 7 kph)
- 10SM
19:15
Clear
57°F / 14°C 32°F / 0°C 39% 30.36 in
(1028 mb)
NW 4.6 mph
(NW 7 kph)
- 10SM
18:55
Clear
61°F / 16°C 30°F / -1°C 31% 30.36 in
(1028 mb)
NW 5.8 mph
(NW 9 kph)
- 10SM
18:53
Clear
61°F / 16°C 30°F / -1°C 31% 30.36 in
(1028 mb)
W 3.5 mph
(W 6 kph)
- 10SM
18:35
Clear
61°F / 16°C 30°F / -1°C 31% 30.36 in
(1028 mb)
NW 6.9 mph
(NW 11 kph)
- 10SM
18:15
Clear
63°F / 17°C 30°F / -1°C 30% 30.33 in
(1027 mb)
NW 6.9 mph
(NW 11 kph)
- 10SM
17:55
Clear
63°F / 17°C 30°F / -1°C 30% 30.33 in
(1027 mb)
NW 8.1 mph
(NW 13 kph)
- 10SM
17:54
Clear
61°F / 16°C 30°F / -1°C 31% 30.33 in
(1027 mb)
Calm - 10SM
17:35
Clear
63°F / 17°C 30°F / -1°C 30% 30.33 in
(1027 mb)
NW 8.1 mph
(NW 13 kph)
- 10SM
17:15
Clear
61°F / 16°C 28°F / -2°C 29% 30.36 in
(1028 mb)
NW 3.5 mph
(NW 6 kph)
- 10SM
16:55
Clear
63°F / 17°C 30°F / -1°C 30% 30.33 in
(1027 mb)
NW 12.7 mph
(NW 20 kph)
- 10SM
16:54
Clear
63°F / 17°C 30°F / -1°C 30% 30.33 in
(1027 mb)
W 6.9 mph
(W 11 kph)
- 10SM
16:35
Clear
63°F / 17°C 28°F / -2°C 27% 30.33 in
(1027 mb)
NW 6.9 mph
(NW 11 kph)
- 10SM
16:15
Partly Cloudy
63°F / 17°C 30°F / -1°C 30% 30.33 in
(1027 mb)
NW 10.4 mph
(NW 17 kph)
- 10SM
15:55
Partly Cloudy
63°F / 17°C 30°F / -1°C 30% 30.33 in
(1027 mb)
NW 11.5 mph
(NW 19 kph)
- 10SM
15:51
Partly Cloudy
63°F / 17°C 30°F / -1°C 30% 30.33 in
(1027 mb)
Calm - 10SM
15:35
Partly Cloudy
61°F / 16°C 28°F / -2°C 29% 30.33 in
(1027 mb)
NNW 3.5 mph
(NNW 6 kph)
- 10SM
15:15
Partly Cloudy
63°F / 17°C 30°F / -1°C 30% 30.33 in
(1027 mb)
NW 10.4 mph
(NW 17 kph)
- 10SM
14:55
Clear
61°F / 16°C 28°F / -2°C 29% 30.33 in
(1027 mb)
NW 4.6 mph
(NW 7 kph)
- 10SM
14:51
Partly Cloudy
61°F / 16°C 28°F / -2°C 29% 30.36 in
(1028 mb)
Calm - 10SM
14:35
Clear
61°F / 16°C 28°F / -2°C 29% 30.33 in
(1027 mb)
NW 8.1 mph
(NW 13 kph)
- 10SM
14:15
Partly Cloudy
61°F / 16°C 28°F / -2°C 29% 30.33 in
(1027 mb)
NW 12.7 mph
(NW 20 kph)
- 10SM
13:55
Partly Cloudy
61°F / 16°C 28°F / -2°C 29% 30.33 in
(1027 mb)
WNW 9.2 mph
(WNW 15 kph)
- 10SM
13:51
Partly Cloudy
61°F / 16°C 27°F / -3°C 27% 30.33 in
(1027 mb)
SSW 4.6 mph
(SSW 7 kph)
- 10SM
13:35
Partly Cloudy
61°F / 16°C 28°F / -2°C 29% 30.33 in
(1027 mb)
N 11.5 mph
(N 19 kph)
- 10SM
13:15
Partly Cloudy
59°F / 15°C 28°F / -2°C 31% 30.33 in
(1027 mb)
Calm - 10SM
12:55
Partly Cloudy
57°F / 14°C 28°F / -2°C 33% 30.33 in
(1027 mb)
SSW 8.1 mph
(SSW 13 kph)
- 10SM
12:51
Partly Cloudy
59°F / 15°C 28°F / -2°C 31% 30.33 in
(1027 mb)
Calm - 10SM
12:35
Mostly Cloudy
57°F / 14°C 28°F / -2°C 33% 30.33 in
(1027 mb)
SSW 4.6 mph
(SSW 7 kph)
- 9SM
12:15
Partly Cloudy
59°F / 15°C 28°F / -2°C 31% 30.33 in
(1027 mb)
S 6.9 mph
(S 11 kph)
- 10SM
11:55
Partly Cloudy
57°F / 14°C 28°F / -2°C 33% 30.33 in
(1027 mb)
S 4.6 mph
(S 7 kph)
- 10SM
11:51
Partly Cloudy
55°F / 13°C 28°F / -2°C 36% 30.33 in
(1027 mb)
Calm - 10SM
11:35
Partly Cloudy
57°F / 14°C 28°F / -2°C 33% 30.33 in
(1027 mb)
N 4.6 mph
(N 7 kph)
- 10SM
11:15
Clear
57°F / 14°C 28°F / -2°C 33% 30.33 in
(1027 mb)
NW 5.8 mph
(NW 9 kph)
- 10SM
10:55
Clear
55°F / 13°C 27°F / -3°C 33% 30.33 in
(1027 mb)
NW 9.2 mph
(NW 15 kph)
- 10SM
10:51
Partly Cloudy
55°F / 13°C 28°F / -2°C 36% 30.33 in
(1027 mb)
W 9.2 mph
(W 15 kph)
- 10SM
10:35
Clear
55°F / 13°C 28°F / -2°C 36% 30.33 in
(1027 mb)
SW 4.6 mph
(SW 7 kph)
- 10SM
10:15
Clear
54°F / 12°C 28°F / -2°C 38% 30.33 in
(1027 mb)
NW 5.8 mph
(NW 9 kph)
- 10SM
09:55
Partly Cloudy
54°F / 12°C 27°F / -3°C 35% 30.33 in
(1027 mb)
NW 13.8 mph
(NW 22 kph)
- 10SM
09:51
Partly Cloudy
54°F / 12°C 30°F / -1°C 41% 30.33 in
(1027 mb)
NNW 5.8 mph
(NNW 9 kph)
- 10SM
09:35
Clear
54°F / 12°C 30°F / -1°C 41% 30.33 in
(1027 mb)
W 9.2 mph
(W 15 kph)
- 10SM
09:15
Clear
52°F / 11°C 34°F / 1°C 50% 30.33 in
(1027 mb)
NNW 6.9 mph
(NNW 11 kph)
- 10SM
08:55
Clear
52°F / 11°C 30°F / -1°C 44% 30.33 in
(1027 mb)
NW 10.4 mph
(NW 17 kph)
- 10SM
08:51
Clear
50°F / 10°C 34°F / 1°C 54% 30.33 in
(1027 mb)
Calm - 10SM
08:35
Clear
50°F / 10°C 32°F / 0°C 50% 30.33 in
(1027 mb)
NW 5.8 mph
(NW 9 kph)
- 10SM
08:15
Clear
46°F / 8°C 37°F / 3°C 71% 30.33 in
(1027 mb)
SSW 8.1 mph
(SSW 13 kph)
- 10SM
07:55
Clear
45°F / 7°C 37°F / 3°C 76% 30.33 in
(1027 mb)
SSW 8.1 mph
(SSW 13 kph)
- 10SM
07:51
Clear
45°F / 7°C 39°F / 4°C 81% 30.33 in
(1027 mb)
SW 5.8 mph
(SW 9 kph)
- 10SM
07:35
Clear
45°F / 7°C 39°F / 4°C 81% 30.33 in
(1027 mb)
SSE 8.1 mph
(SSE 13 kph)
- 10SM
07:15
Partly Cloudy
41°F / 5°C 37°F / 3°C 87% 30.33 in
(1027 mb)
SW 3.5 mph
(SW 6 kph)
- 10SM
06:55
Partly Cloudy
39°F / 4°C 36°F / 2°C 87% 30.33 in
(1027 mb)
Calm - 10SM
06:51
Clear
39°F / 4°C 36°F / 2°C 87% 30.33 in
(1027 mb)
Calm - 10SM
06:35
Partly Cloudy
36°F / 2°C 36°F / 2°C 100% 30.33 in
(1027 mb)
N 5.8 mph
(N 9 kph)
- 10SM
06:15
Clear
34°F / 1°C 32°F / 0°C 93% 30.33 in
(1027 mb)
NNE 4.6 mph
(NNE 7 kph)
- 10SM
05:55
Partly Cloudy
34°F / 1°C 32°F / 0°C 93% 30.3 in
(1026 mb)
N 4.6 mph
(N 7 kph)
- 10SM
05:51
Partly Cloudy
32°F / 0°C 30°F / -1°C 93% 30.3 in
(1026 mb)
Calm - 10SM
05:35
Mostly Cloudy
30°F / -1°C 30°F / -1°C 100% 30.3 in
(1026 mb)
Calm - M1/4SM
05:15
Clear
30°F / -1°C 30°F / -1°C 100% 30.3 in
(1026 mb)
Calm - 10SM
04:55
Clear
34°F / 1°C 34°F / 1°C 100% 30.3 in
(1026 mb)
Calm - 10SM
04:35
Clear
30°F / -1°C 28°F / -2°C 93% 30.27 in
(1025 mb)
NNE 3.5 mph
(NNE 6 kph)
- 10SM
04:15
Clear
34°F / 1°C 32°F / 0°C 93% 30.27 in
(1025 mb)
NE 4.6 mph
(NE 7 kph)
- 10SM
03:55
Clear
34°F / 1°C 32°F / 0°C 93% 30.27 in
(1025 mb)
Calm - 10SM
03:35
Clear
36°F / 2°C 34°F / 1°C 93% 30.27 in
(1025 mb)
N 4.6 mph
(N 7 kph)
- 10SM
03:15
Clear
36°F / 2°C 34°F / 1°C 93% 30.27 in
(1025 mb)
NE 5.8 mph
(NE 9 kph)
- 10SM
02:55
Clear
34°F / 1°C 34°F / 1°C 100% 30.27 in
(1025 mb)
NE 5.8 mph
(NE 9 kph)
- 10SM
02:35
Clear
36°F / 2°C 36°F / 2°C 100% 30.24 in
(1024 mb)
N 5.8 mph
(N 9 kph)
- 10SM
02:15
Clear
34°F / 1°C 34°F / 1°C 100% 30.24 in
(1024 mb)
NNE 4.6 mph
(NNE 7 kph)
- 10SM
01:55
Clear
36°F / 2°C 36°F / 2°C 100% 30.24 in
(1024 mb)
Calm - 10SM
01:35
Clear
36°F / 2°C 34°F / 1°C 93% 30.24 in
(1024 mb)
E 4.6 mph
(E 7 kph)
- 10SM
01:15
Clear
36°F / 2°C 36°F / 2°C 100% 30.24 in
(1024 mb)
NNW 4.6 mph
(NNW 7 kph)
- 8SM
00:55
Clear
37°F / 3°C 37°F / 3°C 100% 30.24 in
(1024 mb)
Calm - 10SM
00:35
Clear
39°F / 4°C 37°F / 3°C 93% 30.24 in
(1024 mb)
Calm - 10SM
00:15
Partly Cloudy
39°F / 4°C 37°F / 3°C 93% 30.24 in
(1024 mb)
Calm - 10SM
Time Weather Temperature Dewpoint Humidity Pressure Winds Precip Visibility


Weather for websites

WeatherForYou.com, LLC is not responsible for any damages or problems caused by this service. Current weather conditions are obtained from the closest station including government and personal stations which may have varying degrees of accuracy. Weather forecasts are derived from the NOAA NDFD. Like all things, this site belongs to Jesus Christ... He just trusts us to maintain it. If you have any questions or comments email webmaster@weatherforyou.com

Copyright © 2015, WeatherForYou.com LLC. All rights reserved.